Wind_Speed
23 34 53 47 41 41 37 28 36 29 28 33 34 32 34 32 33 38 39 34 43 43 43 42 40 38 36 34 33 32 31 30 29 25 21 19 18 18 15 13 11 8 5 4
25 47 45 34 36 39 40 41 44 27 24 29 29 31 32 38 35 40 36 37 39 39 43 44 43 41 40 37 36 35 34 34 31 27 23 20 21 21 19 15 13 10 8 6
34 41 18 39 39 41 48 50 46 39 23 30 25 35 43 48 44 42 42 42 39 42 41 43 44 42 41 41 39 37 36 35 34 31 28 25 25 24 21 17 15 13 11 8
37 53 44 39 39 44 46 45 36 36 32 35 19 21 32 28 33 38 44 43 43 40 43 43 44 45 43 40 40 40 38 37 36 34 30 28 24 24 20 20 19 16 14 11
48 37 36 43 49 32 56 31 32 31 35 24 30 23 47 23 36 38 36 41 42 41 41 43 44 44 44 43 41 39 40 40 38 37 31 30 29 27 26 25 21 18 16 13
40 39 35 39 33 45 25 32 27 26 25 18 49 34 39 41 42 26 29 33 40 37 39 39 41 44 43 43 44 42 40 39 40 39 35 34 32 29 28 27 22 20 18 16
35 31 39 48 38 31 36 26 11 12 10 14 37 29 54 11 27 27 30 32 32 33 37 41 42 44 45 47 45 45 44 41 37 35 34 36 35 30 31 29 24 21 20 18
20 27 24 38 49 34 53 41 16 15 12 23 25 18 38 31 37 32 18 14 27 36 39 41 38 40 42 46 46 45 43 42 39 37 34 33 36 33 32 31 27 25 23 21
17 17 31 30 46 56 36 54 52 22 7 8 21 45 39 21 23 22 38 28 19 31 39 37 39 39 40 43 45 44 42 41 39 35 35 34 31 30 32 32 30 28 25 22
21 29 36 32 35 53 47 44 40 39 15 13 17 31 23 15 30 32 33 32 26 23 30 39 39 36 37 39 41 42 42 42 40 39 36 33 33 32 32 33 33 28 25 24
34 31 32 24 26 50 49 47 35 38 35 12 9 16 17 21 27 23 22 29 38 32 28 26 29 38 33 36 39 39 41 41 42 41 38 36 33 32 33 35 34 31 28 27
29 30 26 32 26 29 49 50 43 32 32 43 20 17 2 11 25 33 34 26 19 28 45 38 36 31 36 35 34 37 37 38 39 41 41 39 36 34 34 36 35 33 30 29
22 9 20 30 14 20 36 45 52 47 38 35 17 14 18 14 4 8 22 28 29 25 24 29 37 40 35 35 34 35 36 35 35 41 43 41 39 36 35 37 38 35 32 30
20 22 20 19 31 37 23 34 46 50 44 34 40 27 26 18 15 13 9 14 20 25 25 25 36 36 34 34 34 36 36 37 38 39 44 43 41 37 38 40 39 37 34 32
17 19 18 24 26 22 24 27 48 48 48 39 31 24 29 17 3 10 12 11 14 13 18 22 27 25 25 28 32 36 36 36 38 40 44 43 40 39 40 41 40 38 35 32
20 17 27 29 22 27 16 24 36 48 45 39 36 25 24 31 29 16 11 11 16 15 17 22 24 23 24 25 27 30 34 37 39 42 45 43 41 40 40 41 41 39 36 33
20 18 26 14 26 24 7 10 19 36 45 34 36 30 17 20 16 13 11 8 11 15 17 19 21 22 24 26 27 28 30 32 37 41 43 42 41 41 41 41 41 40 38 34
23 22 17 14 18 4 14 10 12 18 21 33 27 34 26 10 3 6 8 9 12 13 15 16 17 18 20 22 24 25 26 29 33 38 40 40 39 38 39 40 41 40 38 34
14 15 11 7 13 16 8 11 3 6 9 16 26 24 33 26 8 11 15 16 16 16 15 13 12 12 13 16 19 22 24 27 30 33 35 36 36 37 37 39 40 41 39 37
21 11 13 11 6 3 4 10 13 8 1 6 14 25 20 28 22 11 19 20 19 15 16 19 19 16 14 12 12 15 20 24 27 30 32 33 33 33 33 34 36 37 37 37
14 9 18 16 11 10 9 6 7 5 6 11 5 18 27 21 19 29 23 17 17 13 13 16 15 12 11 13 11 11 12 18 22 26 28 31 32 33 33 33 34 35 37 37
17 9 8 8 7 8 12 6 2 4 7 4 6 7 17 26 29 29 30 20 19 19 19 17 14 12 9 8 7 8 10 10 12 16 21 25 28 31 33 34 35 36 37 38
25 28 18 12 9 11 2 4 4 6 4 1 3 7 2 13 24 31 27 25 23 23 26 24 20 15 14 13 8 7 9 11 10 11 12 17 21 25 29 32 34 36 36 38
26 25 25 26 34 25 21 19 18 14 14 11 8 9 11 9 10 14 28 30 30 25 24 25 23 18 14 13 13 10 11 12 12 13 12 11 13 17 20 24 29 32 34 37
23 20 27 32 29 31 29 23 23 23 24 25 21 18 16 16 14 15 15 18 25 28 28 23 20 20 19 18 18 17 17 17 17 16 16 15 13 13 15 17 20 23 28 32
32 30 29 31 23 24 21 19 19 22 21 20 23 25 25 23 22 19 15 15 16 23 27 27 28 26 25 26 25 23 23 22 22 21 20 20 19 17 16 16 19 21 25 29
Wind_Direction
252 236 234 232 231 239 238 246 244 247 242 255 255 254 258 257 253 254 251 246 237 239 241 240 236 235 230 232 233 232 231 233 236 239 242 237 230 227 228 228 228 230 230 243
251 239 244 239 240 239 237 239 241 247 240 250 257 261 262 257 253 252 252 250 242 238 237 239 236 234 232 232 234 235 233 234 236 238 242 237 225 223 226 227 227 225 224 226
254 245 261 241 238 236 235 233 237 242 249 255 269 270 261 260 260 256 250 249 244 238 237 236 237 234 233 231 231 234 235 237 239 239 237 232 228 225 223 222 224 223 221 220
265 247 251 250 245 232 241 237 244 244 245 253 254 276 262 257 254 255 248 246 245 240 237 234 235 233 231 230 230 231 233 234 236 238 235 231 232 232 227 223 224 222 219 217
271 258 251 246 243 237 242 240 241 242 241 254 249 264 266 261 249 241 244 245 244 241 238 235 233 236 234 232 231 231 231 231 232 234 233 231 233 229 221 222 222 222 218 216
280 256 242 243 248 239 245 233 233 236 234 239 244 236 265 250 245 249 240 241 246 242 239 236 232 233 232 233 233 231 231 230 230 232 231 231 233 229 227 229 225 221 218 216
294 279 245 244 255 230 224 212 197 206 202 232 237 228 236 250 246 243 248 247 240 238 234 233 229 228 229 230 230 230 229 231 231 230 230 230 231 228 226 226 223 221 218 215
305 296 275 243 243 248 211 206 199 196 197 234 215 227 229 250 256 243 224 237 235 226 228 229 226 228 228 230 231 231 231 232 231 231 231 231 229 228 226 224 221 218 216 213
319 289 294 261 238 237 232 214 212 235 251 263 219 239 254 246 243 238 240 247 249 228 226 228 227 227 227 229 231 232 231 231 231 230 229 226 225 221 222 221 220 219 217 215
307 305 309 273 235 229 223 216 218 232 241 231 229 236 237 231 252 255 254 249 240 229 224 226 227 227 229 229 228 230 229 229 228 227 226 226 224 221 222 221 220 219 218 214
304 292 286 293 277 214 221 226 215 219 226 230 242 240 235 243 246 252 242 239 231 220 218 215 224 227 226 224 226 227 228 227 224 222 223 225 222 220 219 219 217 216 214 213
303 284 283 290 272 227 221 214 220 219 216 233 242 236 157 246 230 229 235 241 237 230 221 225 234 230 225 225 224 224 224 225 223 219 219 220 218 215 215 216 215 215 213 211
295 282 316 324 293 253 250 216 213 219 228 232 231 232 240 265 319 286 244 242 237 230 225 230 231 226 224 223 223 219 219 217 215 216 215 216 215 215 213 212 213 214 213 213
279 278 285 275 285 297 218 239 213 215 221 224 228 230 240 293 294 285 251 241 224 231 230 230 215 218 224 225 220 213 213 213 215 214 212 213 214 213 212 210 211 210 211 213
329 282 289 308 309 299 266 242 216 222 225 225 228 231 222 246 22 356 252 227 207 205 200 202 201 201 207 211 212 211 211 211 214 214 211 212 211 211 210 208 209 210 211 213
326 308 325 315 319 333 281 277 223 222 224 229 232 246 233 250 266 307 322 248 214 200 191 198 208 209 206 206 207 209 212 212 212 210 208 210 211 211 210 209 209 209 211 213
303 313 325 306 328 324 294 278 245 226 227 226 225 221 229 252 259 285 282 284 220 201 198 196 200 205 207 209 211 212 212 210 209 207 208 209 211 211 209 208 209 210 213 215
270 291 306 301 324 279 337 312 255 229 222 231 230 225 226 250 282 233 239 206 202 194 196 201 204 207 211 213 214 214 210 208 208 209 211 213 212 211 211 211 211 213 215 217
275 262 281 288 311 287 295 325 286 218 196 213 219 203 212 226 245 200 181 165 153 147 147 159 166 181 197 208 213 212 211 208 209 212 216 217 217 215 214 213 213 215 217 219
303 258 249 284 286 285 358 360 355 159 162 172 208 211 183 215 222 209 176 161 155 142 143 139 128 125 126 136 165 193 203 206 206 208 211 214 216 217 218 218 217 217 219 221
290 284 251 260 270 283 307 295 344 3 40 47 149 186 202 199 208 211 213 203 189 188 168 163 156 143 132 126 130 137 170 194 200 202 206 211 214 215 215 217 219 220 221 221
260 252 251 243 254 271 312 223 43 346 53 28 30 63 180 196 208 203 215 224 225 227 226 230 231 207 198 189 152 153 165 157 174 194 203 208 212 215 217 217 217 218 219 218
247 243 253 229 236 253 267 64 353 319 359 180 278 77 297 183 187 209 211 219 225 230 234 238 244 248 249 254 235 201 177 181 178 176 183 197 205 212 215 216 216 216 215 215
242 249 249 255 251 261 255 260 279 283 278 267 264 270 274 294 293 182 182 202 218 231 243 245 239 241 237 238 237 203 207 198 195 198 195 193 199 206 212 215 217 217 216 214
247 250 251 250 260 261 258 267 277 270 265 265 262 259 267 263 267 287 222 190 201 215 219 212 207 221 219 217 215 208 204 209 206 204 208 208 208 209 208 210 215 215 214 214
251 245 240 242 263 259 261 266 262 261 266 267 269 269 266 266 260 254 261 270 208 184 187 189 192 196 201 204 209 211 209 209 216 216 215 213 214 217 218 215 213 211 208 208
Height
3032 3031 3015 3024 3030 3033 3038 3037 3035 3037 3042 3038 3035 3035 3037 3041 3041 3042 3044 3046 3049 3053 3061 3063 3066 3070 3074 3077 3081 3084 3088 3091 3093 3096 3099 3102 3104 3106 3108 3110 3111 3112 3113 3114
3027 3010 3015 3026 3029 3030 3029 3028 3023 3033 3036 3029 3030 3027 3028 3030 3031 3034 3036 3037 3041 3045 3050 3054 3058 3062 3066 3071 3075 3079 3082 3085 3088 3092 3096 3098 3100 3102 3105 3107 3109 3111 3112 3113
3017 3005 3017 3017 3018 3019 3014 3013 3017 3024 3030 3024 3024 3015 3016 3018 3021 3024 3026 3029 3032 3036 3040 3045 3049 3054 3059 3062 3067 3072 3076 3080 3083 3087 3090 3093 3095 3098 3101 3104 3106 3108 3110 3111
3004 2994 3003 3003 3002 3011 3005 3011 3021 3022 3025 3016 3023 3002 3006 3010 3010 3010 3015 3018 3022 3027 3031 3036 3040 3045 3050 3056 3060 3065 3069 3074 3077 3081 3085 3089 3092 3095 3099 3101 3103 3105 3108 3110
2988 2994 2997 2994 2989 3002 2988 3012 3013 3016 3015 3017 3015 3011 2980 2999 2999 3000 3005 3008 3013 3018 3022 3027 3032 3036 3044 3048 3052 3058 3062 3066 3070 3074 3080 3084 3087 3091 3093 3096 3100 3102 3106 3108
2981 2984 2986 2985 2990 2993 2997 3004 3005 3009 3011 3008 2991 3006 2975 2984 2985 2995 2998 3001 3004 3010 3014 3019 3024 3028 3034 3039 3044 3049 3053 3058 3063 3068 3074 3078 3081 3086 3090 3093 3097 3100 3103 3105
2976 2971 2971 2977 2977 2982 2989 2993 2996 3000 2999 2986 2983 2993 2959 2975 2979 2986 2989 2992 2996 3000 3004 3007 3012 3017 3023 3028 3034 3040 3045 3051 3057 3063 3067 3071 3076 3081 3084 3088 3093 3096 3100 3103
2971 2963 2964 2966 2966 2966 2972 2978 2970 2973 2973 2953 2973 2964 2955 2967 2970 2978 2979 2983 2985 2989 2993 2997 3004 3009 3015 3020 3026 3032 3039 3046 3051 3057 3062 3066 3070 3076 3080 3084 3088 3092 3096 3100
2972 2958 2954 2950 2958 2961 2960 2962 2961 2965 2965 2964 2959 2954 2960 2961 2963 2967 2972 2976 2979 2979 2985 2991 2996 3001 3006 3012 3017 3024 3032 3038 3044 3051 3055 3059 3065 3070 3074 3079 3083 3088 3092 3096
2969 2957 2943 2940 2944 2950 2952 2956 2967 2965 2963 2959 2945 2948 2949 2952 2956 2961 2965 2968 2972 2975 2978 2982 2988 2994 2999 3004 3010 3016 3022 3029 3037 3042 3048 3053 3059 3064 3069 3073 3078 3083 3089 3093
2965 2958 2939 2938 2932 2934 2944 2945 2951 2958 2953 2947 2942 2940 2947 2951 2954 2956 2956 2956 2961 2968 2972 2975 2981 2986 2991 2996 3001 3007 3013 3019 3026 3034 3041 3047 3053 3057 3063 3068 3072 3078 3084 3088
2957 2952 2939 2933 2927 2928 2934 2937 2944 2944 2943 2939 2941 2940 2942 2945 2946 2945 2948 2950 2953 2958 2962 2967 2974 2979 2984 2989 2994 3000 3006 3012 3020 3027 3033 3039 3046 3051 3057 3062 3067 3073 3079 3083
2951 2947 2936 2924 2923 2924 2920 2927 2936 2941 2942 2935 2943 2941 2943 2943 2943 2942 2942 2945 2948 2951 2955 2961 2965 2971 2976 2981 2987 2993 2999 3006 3012 3018 3025 3032 3038 3045 3051 3056 3062 3068 3074 3079
2946 2942 2942 2938 2933 2923 2916 2920 2926 2929 2930 2930 2931 2943 2940 2943 2942 2941 2940 2941 2942 2945 2947 2950 2956 2963 2969 2974 2980 2986 2992 2998 3005 3011 3018 3025 3032 3039 3045 3050 3056 3063 3069 3074
2944 2938 2936 2933 2924 2913 2909 2912 2917 2920 2925 2930 2933 2938 2942 2942 2940 2939 2938 2938 2940 2941 2943 2948 2953 2958 2963 2968 2973 2980 2986 2993 2999 3004 3011 3019 3027 3033 3038 3045 3052 3058 3064 3070
2943 2935 2929 2923 2920 2912 2908 2908 2912 2916 2921 2927 2933 2935 2939 2939 2937 2940 2939 2938 2939 2941 2943 2948 2952 2956 2961 2965 2970 2975 2981 2986 2992 2998 3005 3013 3020 3027 3033 3040 3047 3053 3059 3064
2945 2939 2933 2922 2917 2908 2907 2908 2907 2911 2918 2922 2925 2934 2938 2937 2938 2939 2939 2939 2940 2941 2944 2946 2950 2953 2957 2962 2966 2971 2976 2981 2986 2993 3000 3007 3014 3021 3028 3035 3042 3048 3054 3059
2941 2939 2937 2927 2923 2912 2910 2907 2906 2908 2913 2916 2924 2929 2934 2937 2938 2939 2939 2941 2941 2942 2944 2946 2949 2952 2956 2959 2964 2968 2973 2978 2984 2990 2997 3003 3010 3017 3023 3030 3037 3043 3049 3055
2938 2939 2937 2932 2926 2920 2911 2909 2908 2908 2909 2911 2915 2922 2928 2935 2938 2939 2939 2941 2942 2944 2945 2946 2949 2952 2954 2957 2961 2965 2970 2975 2981 2987 2993 3000 3006 3013 3019 3025 3032 3037 3043 3049
2936 2935 2937 2933 2929 2920 2916 2913 2908 2905 2907 2909 2914 2919 2926 2931 2935 2941 2938 2939 2941 2944 2947 2947 2950 2953 2955 2958 2960 2963 2967 2972 2978 2983 2989 2996 3002 3009 3016 3022 3027 3033 3039 3044
2934 2931 2930 2928 2926 2919 2915 2913 2912 2912 2915 2910 2911 2915 2919 2923 2927 2929 2934 2936 2938 2941 2942 2946 2950 2953 2957 2959 2962 2964 2967 2971 2975 2980 2985 2991 2997 3004 3009 3016 3022 3028 3033 3038
2931 2930 2926 2923 2923 2921 2915 2915 2917 2915 2910 2912 2911 2909 2912 2915 2919 2924 2930 2932 2936 2940 2942 2945 2948 2952 2956 2959 2962 2964 2967 2971 2975 2979 2983 2988 2993 2998 3003 3009 3015 3020 3026 3031
2926 2923 2923 2923 2919 2915 2915 2914 2914 2913 2912 2912 2912 2909 2911 2912 2916 2921 2925 2931 2934 2935 2938 2941 2945 2949 2953 2958 2961 2964 2967 2971 2975 2979 2982 2985 2989 2993 2998 3003 3008 3012 3018 3024
2917 2918 2917 2917 2913 2913 2913 2913 2912 2912 2911 2912 2913 2913 2911 2911 2914 2916 2919 2925 2930 2933 2935 2938 2942 2946 2951 2956 2959 2962 2966 2969 2973 2977 2981 2984 2987 2990 2994 2998 3002 3007 3012 3017
2910 2911 2910 2909 2909 2908 2907 2910 2909 2908 2909 2910 2910 2910 2911 2912 2915 2917 2917 2921 2924 2928 2932 2936 2940 2943 2948 2952 2955 2959 2963 2967 2970 2974 2978 2982 2986 2989 2992 2995 2999 3003 3009 3015
2899 2900 2902 2902 2904 2904 2903 2903 2903 2903 2904 2905 2905 2906 2908 2910 2912 2914 2917 2919 2922 2923 2927 2930 2933 2937 2942 2947 2951 2955 2959 2963 2967 2970 2974 2978 2982 2986 2990 2994 2997 3000 3005 3010